www.pogodaiklimat.ru

Погода и климат >> Архив погоды >> Китай >> Sanjianfang


ПОГОДА в Sanjianfang

  • Прогноз погоды в Sanjianfang
  • Монитор погоды в Sanjianfang
  • Климат города

АРХИВ ПОГОДЫ в Sanjianfang

Время (UTC), дата Ветер
(напр.,м/с)
 
Видим.   Явления Облачность Т
(С)
Тd
(С)
f
(%)
Тe
(С)
Тes
(С)
Комфортность P
(гПа)
Po
(гПа)
Тmin
(С)
Tmax
(С)
R
(мм)
R24
(мм)
S
(см)
18 8.12 С 4 25 км ?/? -6.9 -18.2 40 -13 -13 1029.9 1030.0 +1.2
21 8.12 СВ 5 30 км ?/? -6.7 -17.5 42 -14 -14 1029.6 1030.0
00 9.12 В 2 26 км ясно -8.6 -18.1 46 -13 -13 1031.8 1032.0
03 9.12 СВ 2 28 км ясно -5.4 -16.3 42 -9 -8 1033.4 1033.0
06 9.12 ЮЗ 2 23 км ясно +0.1 -15.8 29 -2 +1 1031.9 1032.0 -10.1
09 9.12 ЮЗ 2 22 км ясно +1.1 -15.8 27 -1 -0 1030.2 1030.0
12 9.12 СВ 4 26 км ясно -3.3 -16.9 34 -8 -8 1030.4 1030.0
18 9.12 С 8 29 км ?/? -2.6 -16.0 35 -10 -10 1028.1 1028.0 +1.3
21 9.12 С 6 30 км ?/? -3.2 -16.5 35 -10 -10 1027.4 1027.0
00 10.12 СЗ 1 22 км ясно -6.1 -16.9 42 -8 -8 1029.1 1029.0
03 10.12 З 4 21 км 9/9
[]
-4.7 -16.2 40 -10 -10 1028.8 1029.0
06 10.12 Ю 2 17 км 9/9
[]
-4.1 -16.0 39 -7 -7 1027.8 1028.2 -8.2
09 10.12 ЮЗ 1 16 км 9/9
[]
-3.0 -16.0 36 -4 -4 1027.8 1028.0
12 10.12 З 1 13 км 9/9
[]
-4.4 -16.3 39 -6 -6 1030.3 1030.0
18 10.12 С 12
{26}
17 км ?/? +0.9 -12.5 36 -7 -7 1029.9 1030.0 +1.2
21 10.12 ЮВ 3
{25}
13 км ?/? -3.6 -15.2 40 -8 -8 1032.8 1033.0
00 11.12 В 3
{19}
19 км ясно -3.6 -10.2 60 -8 -8 1031.9 1032.0
03 11.12 СВ 2 26 км 1/1
[]
-1.9 -14.7 37 -5 -4 1031.4 1031.0
06 11.12 Ю 3 22 км ясно +0.8 -15.6 28 -3 0 1028.9 1028.7 -5.3
09 11.12 Ю 2 23 км ясно +1.4 -16.0 26 -1 0 1026.8 1027.0
12 11.12 В 1 20 км ясно -3.4 -16.3 36 -5 -5 1028.2 1028.0
18 11.12 С 3 25 км ?/? -4.5 -16.7 38 -9 -9 1026.8 1027.0 +2.0
21 11.12 С 7 26 км ?/? -3.2 -15.2 39 -10 -10 1025.1 1025.0
00 12.12 С 11 10 км 4/4
[]
-3.2 -10.7 56 -12 -12 1025.7 1026.0
03 12.12 С 9 11 км 9/9
[]
-2.0 -11.0 50 -10 -10 1026.7 1027.0
06 12.12 С 9 27 км 6/6
[]
+2.4 -12.6 32 -4 -4 1023.9 1024.0 -6.0
09 12.12 С 11 30 км 9/9
[]
+3.5 -11.6 32 -3 -3 1022.3 1022.0
12 12.12 С 11 19 км ясно -0.6 -11.1 45 -9 -9 1024.7 1025.0
18 12.12 Ю 1
{19}
16 км ?/? -5.4 -16.0 43 -7 -7 1026.6 1027.0 +4.7
21 12.12 С 2 14 км ?/? -5.7 -16.6 42 -9 -9 1027.4 1027.0
00 13.12 штиль 0 16 км 3/3
[]
-4.7 -15.9 41 -5 -5 1029.6 940.3
03 13.12 С 3 15 км 9/9
[]
-3.8 -15.4 40 -8 -8 1032.1 911.8
06 13.12 Ю 3 15 км 6/6
[]
+0.9 -13.9 32 -3 -1 1031.3 942.0 -6.4
09 13.12 Ю 2 17 км 8/8
[]
+1.1 -14.1 31 -1 -1 1030.6 1031.0
12 13.12 Ю 2 17 км 5/5
[]
-2.3 -14.1 40 -5 -5 1031.6 1032.0
18 13.12 С 13
{18}
23 км ?/? -3.6 -12.3 51 -13 -13 1030.6 1031.0 +1.8
21 13.12 С 16
{21}
16 км ?/? -3.8 -12.7 50 -14 -14 1031.4 1031.0
00 14.12 С 15
{22}
26 км ясно -4.4 -13.8 48 -15 -15 1033.7 1034.0
03 14.12 С 12
{22}
20 км ясно -3.0 -13.8 43 -12 -12 1035.8 1036.0
06 14.12 С 13
{21}
19 км ясно -0.4 -14.7 33 -9 -9 1036.8 1051.4 -4.6
09 14.12 С 13
{19}
22 км ясно -0.5 -14.8 33 -9 -9 1037.3 1037.0
12 14.12 С 11
{18}
23 км ясно -3.8 -14.5 43 -13 -13 1040.1 949.5
18 14.12 С 5
{18}
14 км ?/? -5.6 -15.6 45 -12 -12 1042.0 951.6 +0.3
21 14.12 С 7 30 км ?/? -6.7 -15.9 48 -15 -15 1042.0 1042.0
00 15.12 СВ 4 30 км ясно -8.4 -17.0 50 -15 -15 1044.0 1059.1
03 15.12 СВ 4 30 км ясно -5.8 -16.1 44 -12 -11 1046.4 1046.0
06 15.12 ЮЗ 1 30 км ясно -0.4 -15.5 31 -1 +3 1045.7 1046.0 -9.0
09 15.12 Ю 3 30 км ясно +0.1 -15.8 29 -3 -3 1045.5 1046.0
12 15.12 В 1 30 км ясно -4.7 -17.2 37 -6 -6 1047.9 1048.0

 

Местоположение метеостанции Sanjianfang (Китай): широта 43.22 долгота 91.73 высота над уровнем моря 792 м.

В архиве по умолчанию представлена погода в Sanjianfang за последнюю неделю. Архивные данные за месяц целиком и за предыдущие месяцы, начиная с января 2011 года, Вы можете получить, выбрав интересующий диапазон дат из раскрывающегося списка и нажав кнопку "Ввод!".

Внимание! Время в таблицах - всемирное. Для получения местного времени необходимо прибавить поправку, которая в Sanjianfang равна 8 ч.

Смотрите также архив погоды в соседних городах и на ближайших метеорологических станциях:

Погода в Hami (Китай) (152 км)
Погода в Qitai (Китай) (195 км)
Погода в Turpan (Китай) (208 км)
Погода в Beita Shan (Китай) (258 км)
Погода в Naomaohu (Китай) (278 км)
Погода в Baitag (Монголия) (323 км)
Погода в Urumqi (Китай) (335 км)
Погода в Tonhil (Монголия) (385 км)
Погода в Jargalant (Монголия) (415 км)
Погода в Dunhuang (Китай) (420 км)

Пояснения к столбцам:

Ветер - указаны скорость ветра в м/с - средняя за 10 мин, порывы в срок и между сроками (в фигурных скобках) и направление, откуда дует ветер: С - северный, СВ - северо-восточный, В - восточный, ЮВ - юго-восточный, Ю - южный, ЮЗ - юго-западный, З - западный, СЗ - северо-западный.
Видимость - горизонтальная дальность видимости в метрах или километрах. При видимости от 1 до 10 км при отсутствии осадков обычно наблюдается дымка, при ухудшении видимости до 1 км и менее - туман. В сухую погоду видимость может ухудшаться дымом, пылью или мглою.
Явления - указаны атмосферные явления, наблюдавшиеся в срок или в последний час перед сроком; фигурными скобками обозначены явления, наблюдавшиеся между сроками (за 1-3 часа до срока); квадратными скобками обозначены град или гололедные отложения с указанием их диаметра в мм.
Облачность - указаны через наклонную черту общая и нижняя облачность в баллах и высота нижней границы облаков в метрах; квадратными скобками обозначены формы облаков: Ci - перистые, Cs - перисто-слоистые, Cc - перисто-кучевые, Ac - высококучевые, As - высокослоистые, Sc - слоисто-кучевые, Ns - слоисто-дождевые, Cu - кучевые, Cb - кучево-дождевые. Подробнее классификацию облаков см. в Атласе облаков (PDF).
T - Температура воздуха - температура, измеренная на высоте 2 м над землей.
Td - Температура точки росы - температура, при понижении до которой содержащийся в воздухе водяной пар достигнет насыщения.
f - Относительная влажность воздуха - влажноcть воздуха, измеренная на высоте 2 м над землей.
Te - Эффективная температура - температура, которую ощущает одетый по сезону человек в тени. Характеристика душности погоды. При расчете учитывается влияние влажности воздуха и скорости ветра на теплоощущения человека.
Tes - Эффективная температура на солнце - температура, которую ощущает человек, с поправкой на солнечный нагрев. Характеристика знойности погоды. Зависит от высоты солнца над горизонтом, облачности и скорости ветра. Ночью, в пасмурную погоду, а также при ветре 12 м/с и более поправка равна нулю.
P - Атмосферное давление - приведенное к уровню моря атмосферное давление.
Po - Атмосферное давление - измеренное на уровне метеостанции атмосферное давление.
Tmin - Минимальная температура - минимум температуры воздуха на высоте 2 м над землей.
Tmax - Максимальная температура - максимум температуры воздуха на высоте 2 м над землей.
R - Количество осадков - Количество выпавших осадков за период времени, мм. При наведении курсора мыши на число - период времени, за который выпало указанное количество осадков.
R24 - Количество осадков - Количество выпавших осадков за 24 часа, мм.
S - Снежный покров - Высота снежного покрова, см. При наведении курсора мыши на число - состояние снежного покрова и степень покрытия местности в баллах.